Year,Month,Day,Hour,Minute,Value (Times are PST for temperature in C)
2016,10,24,10,49,12.80
2016,10,24,10,50,12.80
2016,10,24,10,51,12.80
2016,10,24,10,52,12.80
2016,10,24,10,53,12.80
2016,10,24,10,54,12.80
2016,10,24,10,55,12.80
2016,10,24,10,56,12.80
2016,10,24,10,57,12.80
2016,10,24,10,58,12.80
2016,10,24,10,59,12.80
2016,10,24,11,00,12.90
2016,10,24,11,01,12.90
2016,10,24,11,02,12.90
2016,10,24,11,03,12.90
2016,10,24,11,04,12.90
2016,10,24,11,05,12.90
2016,10,24,11,06,12.90
2016,10,24,11,07,12.90
2016,10,24,11,08,12.90
2016,10,24,11,09,12.90
2016,10,24,11,10,12.90
2016,10,24,11,11,12.90
2016,10,24,11,12,12.90
2016,10,24,11,13,12.90
2016,10,24,11,14,12.90
2016,10,24,11,15,12.90
2016,10,24,11,16,12.90
2016,10,24,11,17,12.90
2016,10,24,11,18,12.90
2016,10,24,11,19,12.90
2016,10,24,11,20,12.90
2016,10,24,11,21,12.90
2016,10,24,12,11,12.50
2016,10,24,12,12,12.40
2016,10,24,12,13,12.40
2016,10,24,12,14,12.40
2016,10,24,12,15,12.40
2016,10,24,12,16,12.40
2016,10,24,12,17,12.40
2016,10,24,12,18,12.50
2016,10,24,12,19,12.50
2016,10,24,12,20,12.50
2016,10,24,12,21,12.50
2016,10,24,12,22,12.60
2016,10,24,12,23,12.60
2016,10,24,12,24,12.60
2016,10,24,12,25,12.70
2016,10,24,12,26,12.70
2016,10,24,12,27,12.70
2016,10,24,12,28,12.70
2016,10,24,12,29,12.70
2016,10,24,12,30,12.70
2016,10,24,12,31,12.70
2016,10,24,12,32,12.70
2016,10,24,12,33,12.70
2016,10,24,12,34,12.70
2016,10,24,12,35,12.70
2016,10,24,12,51,12.90
2016,10,24,12,52,13.00
2016,10,24,12,53,13.00
2016,10,24,12,54,13.00
2016,10,24,12,55,13.00
2016,10,24,12,56,13.00
2016,10,24,12,57,13.00
2016,10,24,12,58,13.00
2016,10,24,12,59,13.00
2016,10,24,13,00,13.00
2016,10,24,13,01,13.00
2016,10,24,13,02,13.00
2016,10,24,13,03,13.00
2016,10,24,13,04,13.00
2016,10,24,13,05,13.00
2016,10,24,13,55,13.60
2016,10,24,13,56,13.60
2016,10,24,13,57,13.60
2016,10,24,13,58,13.60
2016,10,24,13,59,13.70
2016,10,24,14,00,13.70
2016,10,24,14,01,13.70
2016,10,24,14,02,13.70
2016,10,24,14,03,13.70
2016,10,24,14,04,13.70
2016,10,24,14,05,13.70
2016,10,24,14,06,13.70
2016,10,24,14,07,13.70
2016,10,24,14,08,13.70
2016,10,24,14,41,13.70
2016,10,24,14,42,13.70
2016,10,24,14,43,13.70
2016,10,24,14,44,13.70
2016,10,24,14,45,13.70
2016,10,24,14,46,13.70
2016,10,24,14,47,13.70
2016,10,24,14,48,13.70
2016,10,24,14,49,13.70
2016,10,24,14,50,13.70
2016,10,24,14,51,13.70
2016,10,24,14,52,13.70
2016,10,24,14,53,13.70
2016,10,24,16,00,12.80
2016,10,24,16,01,12.80
2016,10,24,16,02,12.80
2016,10,24,16,03,12.80
2016,10,24,16,04,12.70
2016,10,24,16,05,12.70
2016,10,24,16,06,12.70
2016,10,24,16,07,12.70
2016,10,24,16,08,12.70
2016,10,24,16,09,12.70
2016,10,24,16,10,12.70
2016,10,24,16,11,12.70
2016,10,24,16,12,12.80
2016,10,24,16,13,12.80
2016,10,24,16,14,12.80
2016,10,24,16,15,12.80
2016,10,24,16,16,12.80
2016,10,24,16,17,12.80
2016,10,24,16,18,12.80
2016,10,24,16,19,12.80
2016,10,24,16,20,12.80
2016,10,24,16,21,12.80
2016,10,24,16,55,11.60
2016,10,24,16,56,11.60
2016,10,24,16,57,11.70
2016,10,24,16,58,11.70
2016,10,24,16,59,11.70
2016,10,24,17,00,11.70
2016,10,24,17,01,11.80
2016,10,24,17,02,11.80
2016,10,24,17,03,11.80
2016,10,24,17,04,11.80
2016,10,24,17,05,11.80
2016,10,24,17,06,11.90
2016,10,24,17,07,11.90
2016,10,24,17,08,11.90
2016,10,24,17,09,11.90
2016,10,24,17,10,11.90
2016,10,24,17,11,11.90
2016,10,24,17,12,11.90
2016,10,24,17,13,11.90
2016,10,24,17,14,11.90
2016,10,24,17,15,11.90
2016,10,24,17,16,11.90
2016,10,24,17,17,11.90
2016,10,24,17,18,11.90
